User: anonymous   Login
Location: Unspecified
(42.0334°N, 93.6656°W)
Time: 19:17:22
(UTC-05:00)
Language:

Iridium 63 - Orbit

View from above orbital plane
View from above orbital plane
View from above satellite
View from above satellite

Ground track
Ground track

The orbit data is extracted from the following two-line orbital elements,

1 25286U 98021B   16268.27927973  .00000104  00000-0  29816-4 0  9997
2 25286  86.4018 335.4769 0001987  96.1872 328.8957 14.34613422966921
Epoch (UTC): 24 September 2016 06:42:09
Eccentricity: 0.0001987
inclination: 86.4018°
perigee height: 775 km
apogee height: 778 km
right ascension of ascending node: 335.4769°
argument of perigee: 96.1872°
revolutions per day: 14.34613422
mean anomaly at epoch: 328.8957°
orbit number at epoch: 96692

The dashed part of the orbit path shows where the satellite is in the earth's shadow,  

DLR